USA 115 (MILSTAR-1 2)

Last updated on Sun Apr 12 2026 00:02:50 GMT+0000 (Coordinated Universal Time)

1 23712U 95060A 26101.37058610 -.00000046 00000+0 00000+0 0 9994 2 23712 14.0497 4.2429 0000844 329.1867 242.7800 1.00365020 32213
UTC large
Height (km)
Speed (km/s)
/
Latitude / Longitude
Inclination (degrees)
Orbital Period (minutes)
Azimuth
Elevation
Range (km)
Doppler Factor

Next 0 passes for location: London (51.5072 / 0.1276)

Sorry there are no passes over London.
USA 115 (MILSTAR-1 2)